JO-97
1 43803U 18099AX  24347.64697530  .00014001  00000-0  76907-3 0  9993
2 43803  97.4969  42.8768 0009453  53.7558 306.4546 15.14188007329639
Suomi 100
1 43804U 18099AY  24347.42836868  .00012932  00000-0  74009-3 0  9991
2 43804  97.5042  42.3360 0014989  53.3878 306.8729 15.12679875329562
ISAT
1 43879U 18111D   24347.54759672  .00018807  00000-0  88391-3 0  9994
2 43879  97.6070 253.2567 0013572  98.8417 261.4354 15.19563863326415
UWE-4
1 43880U 18111E   24346.97493954  .00017379  00000-0  86723-3 0  9990
2 43880  97.5996 252.1409 0016394 111.1281 249.1706 15.17458018326315
Sparrow
1 43881U 18111F   24347.51315827  .00019724  00000-0  90729-3 0  9991
2 43881  97.6180 255.5219 0009956 129.8127 230.3986 15.20334446326481
Prox-1
1 44339U 19036A   24347.79096190  .00014530  00000-0  21408-2 0  9993
2 44339  23.9967 150.8201 0006862 197.3578 162.6683 14.73658998291644
SONATE
1 44400U 19038Q   24347.59765385  .00041720  00000-0  73437-3 0  9992
2 44400  97.7120 351.5626 0011531 172.0666 188.0769 15.50272718301558
Taurus 1
1 44530U 19059C   24347.75681239  .00010720  00000-0  21893-2 0  9996
2 44530  98.5890 113.5210 0010710 225.6596 134.3727 14.61042311277785
Duchifat 3
1 44854U 19089C   24347.48995286  .00032411  00000-0  11375-2 0  9993
2 44854  36.9514  37.8962 0011173 156.7176 203.4083 15.28501005275445
TO-108
1 44881U 19093C   24347.76060699  .00001937  00000-0  23393-3 0  9993
2 44881  97.8136  61.0672 0015406  97.6395 262.6570 14.84822681269535
FloripaSat 1
1 44885U 19093G   24347.71797685  .00008492  00000-0  78601-3 0  9999
2 44885  97.8310  69.3448 0012557  84.9414 275.3239 14.94713135269997
RS-44
1 44909U 19096E   24347.52066284  .00000037  00000-0  10781-3 0  9994
2 44909  82.5215 346.2717 0217379 354.5734   5.3012 12.79736887231837
UPMSat 2
1 46276U 20061E   24347.21600723  .00036506  00000-0  72958-3 0  9999
2 46276  97.2746  52.5339 0000982 155.2703 204.8594 15.46718744237563
AmicalSat
1 46287U 20061R   24347.59393724  .00255071  00000-0  14704-2 0  9996
2 46287  97.3175  58.2320 0002994 275.8522  84.2403 15.77966487237212
SALSAT
1 46495U 20068K   24347.36386659  .00010850  00000-0  53333-3 0  9994
2 46495  97.8394 311.9726 0014915  65.5657 294.7130 15.18131117231295
CubeSX-Sirius-HSE
1 47951U 21022V   24347.74823995  .00048797  00000-0  11100-2 0  9990
2 47951  97.4406 247.2578 0007218 205.8674 154.2214 15.42805521205923
CubeSX-HSE
1 47952U 21022W   24347.74276427  .00044772  00000-0  10071-2 0  9998
2 47952  97.4402 247.4002 0007324 203.6891 156.4020 15.43160016205933
KSU-Cubesat
1 47954U 21022Y   24347.21123991  .00092966  00000-0  15014-2 0  9999
2 47954  97.4406 249.5769 0005902 178.8691 181.2576 15.52534428205746
GRBAlpha
1 47959U 21022AD  24347.76588568  .00047611  00000-0  10712-2 0  9996
2 47959  97.4403 247.5914 0007264 203.6381 156.4533 15.43139228204761
Orbicraft-Zorkiy
1 47960U 21022AE  24347.76851546  .00066645  00000-0  12261-2 0  9996
2 47960  97.4438 249.8749 0005871 190.4019 169.7111 15.48952507205572
TUBIN
1 48900U 21059X   24347.76470005  .00030249  00000-0  70072-3 0  9994
2 48900  97.6611 139.2883 0005303 170.7616 189.3729 15.42378807192327
LEDSAT
1 49069U 21073D   24347.62488744  .00032748  00000-0  86869-3 0  9998
2 49069  97.4171  58.8107 0014607  12.0393 348.1198 15.38138291183742
CUTE
1 49263U 21088D   24347.18891037  .00041675  00000-0  12438-2 0  9993
2 49263  97.4764  53.3822 0011082 169.6015 190.5459 15.34449355176781
TeikyoSat 4
1 49396U 21102B   24347.53882551  .00003854  00000-0  26656-3 0  9992
2 49396  97.4370  26.3240 0013622  32.3736 327.8324 15.06203853169589
Z-Sat
1 49399U 21102E   24347.74088376  .00006513  00000-0  38457-3 0  9998
2 49399  97.4083  28.6574 0019281   7.9507 352.2026 15.11692170169939
KOSEN 1
1 49402U 21102H   24347.08630908  .00009795  00000-0  50936-3 0  9995
2 49402  97.4003  30.2540 0016921 350.6278   9.4637 15.16134672170056
HO-113
1 50466U 21131B   24347.77464391  .00001127  00000-0  36935-3 0  9990
2 50466  98.5212  72.0162 0003367 323.2865  36.8092 14.40341218155700
IRIS-A
1 51044U 22002BN  24347.15595157  .00053464  00000-0  10108-2 0  9992
2 51044  97.3610  54.5741 0004726 113.4935 246.6813 15.48232277161787
Foresail-1
1 52766U 22057AL  24347.63536551  .00044996  00000-0  84469-3 0  9992
2 52766  97.5969 119.4106 0007226 216.0492 144.0272 15.48461565141894
SNUGLITE 2
1 52899U 22065F   24347.61369647  .00002231  00000-0  45209-3 0  9991
2 52899  98.1421 125.7457 0006831 320.6951  39.3754 14.62215769130328
IO-117
1 53106U 22080B   24346.40082951 -.00000003  00000-0  00000+0 0  9998
2 53106  70.1337 130.9545 0008301  67.0662 293.0873  6.42557702 56656
FO-118
1 54684U 22167C   24347.78166552  .00103978  00000-0  14213-2 0  9996
2 54684  97.6132 139.8684 0007508 240.7023 119.3482 15.57060049111798
SSS-2B
1 56184U 23054G   24347.77067686  .00636492  17531-3  15056-2 0  9994
2 56184  97.3317 251.2539 0006939 116.3165 243.8825 15.96746660 93928
SO-120
1 56992U 23084BU  24347.60109187  .00129518  00000-0  16059-2 0  9999
2 56992  97.5360 112.1416 0003128 108.1778 251.9819 15.59601997 83632
MRC-100
1 56993U 23084BV  24347.82740584  .00344208  00000-0  20040-2 0  9996
2 56993  97.5298 114.3284 0002516 312.2566  47.8486 15.77502466 83805
UmKA 1 (RS40S)
1 57172U 23091G   24347.79057649  .00007102  00000-0  41959-3 0  9995
2 57172  97.5882  38.2641 0014466 227.0628 132.9390 15.11721203 80430
CubeBel-2 (EU11S)
1 57175U 23091K   24347.78423608  .00010254  00000-0  56888-3 0  9998
2 57175  97.5882  38.5679 0012542 238.6075 121.3930 15.13887714 80450
VERONIKA
1 58261U 23174F   24347.77335680  .00039876  00000-0  11122-2 0  9990
2 58261  97.4414  62.3906 0008603 331.8445  28.2332 15.36610346 60971
KAFASAT
1 58317U 23174BP  24347.52694872  .00071422  00000-0  14106-2 0  9994
2 58317  97.4338  64.0997 0007499 299.9374  60.1131 15.46871120 61089
ENSO
1 58470U 23185J   24347.78344824  .00030151  00000-0  86034-3 0  9997
2 58470  97.4039  53.7843 0009813  10.6724 349.4726 15.35946551 57426
EIRSAT-1
1 58472U 23185L   24347.80389095  .00038632  00000-0  10172-2 0  9992
2 58472  97.4031  54.1780 0009077   9.0968 351.0439 15.38398925 57451
SONATE-2
1 59112U 24043Q   24347.32518002  .00015761  00000-0  60033-3 0  9997
2 59112  97.4950 110.3842 0013241  33.3008 326.9061 15.26729237 42907
MO-122
1 60209U 24125G   24347.56588088  .00017029  00000-0  64267-3 0  9996
2 60209  97.2984 196.0916 0024655  57.5141 302.8477 15.26805368 24556
GRBBeta
1 60237U 24128C   24347.57349500  .00006086  00000-0  50084-3 0  9998
2 60237  61.9939 342.4069 0031136  12.9346 347.2535 14.99769934 23324
Curium One
1 60242U 24128H   24347.26819661  .00011673  00000-0  92940-3 0  9995
2 60242  61.9844 343.5182 0031300   4.9296 355.2095 15.00389771 23286
ROBUSTA-3A
1 60243U 24128J   24347.35941389  .00009917  00000-0  79904-3 0  9992
2 60243  61.9912 343.5236 0029400   2.7646 357.3600 15.00107020 23297
CatSat
1 60246U 24125J   24347.82104925  .00014393  00000-0  56601-3 0  9994
2 60246  97.2783 197.0899 0048481  10.8736 349.3538 15.24650651 22698
CySat-1
1 61501U 98067WZ  24347.83140246  .00277490  00000-0  16094-2 0  9992
2 61501  51.6273 144.6583 0013286 282.0173  77.9338 15.77073640 10269
AO-123
1 61781U 24199AY  24347.80600981  .00010127  00000-0  42052-3 0  9997
2 61781  97.3799 212.0032 0019112 106.8236 253.5099 15.23855779 49614
